Regional Weather Roundup
Issued by NWS

Home | Current Version | Previous Version | Graphics & Text | Print | Product List | Glossary On
Versions: 1 2 3 4 5 6 7 8 9 10 11 12 13 14 15 16 17 18 19 20 21 22 23 24 25 26 27
000
ASUS45 KCYS 301910
RWRWY

WYOMING REGIONAL WEATHER ROUNDUP
NATIONAL WEATHER SERVICE CHEYENNE WY
100 PM MDT SAT JUL 30 2016

NOTE:  "FAIR" INDICATES FEW OR NO CLOUDS BELOW 12,000 FEET
WITH NO SIGNIFICANT WEATHER AND/OR OBSTRUCTIONS TO VISIBILITY.

WYZ001-302000-
YELLOWSTONE NATIONAL PARK

CITY           SKY/WX    TMP DP  RH WIND       PRES   REMARKS
LK YELLOWSTONE   N/A     76  30  18 NW8G21    30.18F
W YELLOWSTONE  NOT AVBL

$$
WYZ002>013-054>058-071-098>099-302000-
NORTHERN WYOMING

CITY           SKY/WX    TMP DP  RH WIND       PRES   REMARKS
JACKSON        SUNNY     84  36  17 SW10G16   30.08F
CODY           FAIR      84  48  28 NE6       29.92F
GREYBULL       FAIR      90  44  20 S7        29.84F
WORLAND        FAIR      92  45  19 NW7       29.85F
SHERIDAN       FAIR      94  45  18 VRB6      29.84F HX  90
BUFFALO        FAIR      91  46  21 SE15      29.92F
GILLETTE       FAIR      90  44  20 VRB7      29.91F
HULETT         FAIR      86  45  23 CALM      29.94F
NEWCASTLE      FAIR      82  50  32 S10G16    29.96F

$$
WYZ014>020-022>026-101>103-302000-
CENTRAL WYOMING

CITY           SKY/WX    TMP DP  RH WIND       PRES   REMARKS
BIG PINEY      FAIR      82  35  18 NW15      30.16F
PINEDALE       FAIR      79  32  18 NW10G16   30.17F
DUBOIS         FAIR      82  27  13 NW16G31   30.11F
LANDER         FAIR      84  47  27 NE3       30.00F
RIVERTON       FAIR      86  49  27 E7        29.99F
CASPER         FAIR      89  44  20 S15       29.98F
DOUGLAS        FAIR      89  50  26 SE7       29.98F

$$
WYZ021-027>030-104>119-302000-
SOUTHERN WYOMING

CITY           SKY/WX    TMP DP  RH WIND       PRES   REMARKS
EVANSTON       FAIR      83  35  18 W16       30.18F
KEMMERER         N/A    N/A N/A N/A W8        30.20S
FORT BRIDGER   FAIR      90  31  12 W17G23    30.19
ROCK SPRINGS   FAIR      87  31  13 SW12      30.14F
DIXON          FAIR      88  32  13 W3        30.17S
RAWLINS        FAIR      88  32  13 W13G26    30.13F
SARATOGA       FAIR      84  36  17 NE3       30.17F
LARAMIE        FAIR      83  39  21 N10       30.17F
CHEYENNE       FAIR      82  55  39 SE6       30.10F
TORRINGTON     FAIR      84  64  50 SE13G18   29.95F
PINE BLUFFS    FAIR      84  48  28 SE15      30.05S

$$




USA.gov is the U.S. government's official web portal to all federal, state and local government web resources and services.